AAL12 KLAX-KJFK

Flight info

Callsign AAL12
Flight time N/A
Altitude 41000
Route DOTSS2 CLEEE PKE GUP KK45A ROKNE BUM VHP KI63Q KLYNE Q29 WWSHR JHW Q476 WLKES PUCKY1
Aircraft B772/H-SDE2E3FGHIJ5LORVWXY/LB1D1

Departure

Time 2026-04-26 12:30
Airport Los Angeles International Airport (KLAX)

Arrival

Time N/A
Airport John F. Kennedy International Airport (KJFK)
Time Latitude Longitude Altitude Speed Heading
2026-04-26 11:58 33.94087 -118.40947 100 ft 0 kts 263°
2026-04-26 12:15 33.94089 -118.40922 97 ft 4 kts 263°
2026-04-26 12:15 33.94093 -118.40890 97 ft 4 kts 263°
2026-04-26 12:16 33.94096 -118.40864 97 ft 4 kts 257°
2026-04-26 12:16 33.94105 -118.40841 97 ft 4 kts 194°
2026-04-26 12:16 33.94129 -118.40841 96 ft 4 kts 173°
2026-04-26 12:16 33.94145 -118.40844 96 ft 0 kts 173°
2026-04-26 12:18 33.94144 -118.40844 97 ft 2 kts 173°
2026-04-26 12:19 33.94104 -118.40838 98 ft 6 kts 174°
2026-04-26 12:19 33.94076 -118.40834 97 ft 6 kts 174°
2026-04-26 12:19 33.94033 -118.40829 99 ft 6 kts 174°
2026-04-26 12:19 33.93976 -118.40822 99 ft 6 kts 174°
2026-04-26 12:20 33.93948 -118.40818 99 ft 6 kts 173°
2026-04-26 12:20 33.93907 -118.40801 98 ft 6 kts 148°
2026-04-26 12:20 33.93877 -118.40765 99 ft 6 kts 136°
2026-04-26 12:20 33.93841 -118.40738 100 ft 6 kts 147°
2026-04-26 12:21 33.93815 -118.40698 100 ft 6 kts 113°
2026-04-26 12:21 33.93811 -118.40647 102 ft 6 kts 82°
2026-04-26 12:21 33.93820 -118.40576 100 ft 10 kts 83°
2026-04-26 12:21 33.93828 -118.40492 101 ft 10 kts 84°
2026-04-26 12:22 33.93836 -118.40409 101 ft 10 kts 83°
2026-04-26 12:22 33.93844 -118.40326 100 ft 10 kts 83°
2026-04-26 12:22 33.93850 -118.40243 100 ft 10 kts 86°
2026-04-26 12:22 33.93858 -118.40159 101 ft 10 kts 83°
2026-04-26 12:23 33.93867 -118.40077 104 ft 10 kts 81°
2026-04-26 12:23 33.93878 -118.39995 101 ft 10 kts 81°
2026-04-26 12:23 33.93889 -118.39912 100 ft 10 kts 82°
2026-04-26 12:23 33.93894 -118.39828 102 ft 10 kts 85°
2026-04-26 12:24 33.93903 -118.39745 101 ft 10 kts 82°
2026-04-26 12:24 33.93912 -118.39662 101 ft 10 kts 82°
2026-04-26 12:24 33.93921 -118.39579 99 ft 10 kts 82°
2026-04-26 12:25 33.93938 -118.39413 101 ft 10 kts 84°
2026-04-26 12:25 33.93946 -118.39330 98 ft 10 kts 84°
2026-04-26 12:25 33.93954 -118.39247 100 ft 10 kts 82°
2026-04-26 12:25 33.93964 -118.39164 99 ft 10 kts 83°
2026-04-26 12:26 33.93972 -118.39081 98 ft 10 kts 83°
2026-04-26 12:26 33.93980 -118.38998 99 ft 10 kts 83°
2026-04-26 12:26 33.93989 -118.38915 98 ft 10 kts 82°
2026-04-26 12:26 33.93998 -118.38832 101 ft 10 kts 82°
2026-04-26 12:27 33.94006 -118.38749 99 ft 10 kts 85°
2026-04-26 12:27 33.94014 -118.38665 102 ft 10 kts 83°
2026-04-26 12:27 33.94023 -118.38583 100 ft 10 kts 82°
2026-04-26 12:27 33.94032 -118.38500 101 ft 10 kts 83°
2026-04-26 12:28 33.94040 -118.38417 103 ft 10 kts 84°
2026-04-26 12:28 33.94048 -118.38334 101 ft 10 kts 83°
2026-04-26 12:28 33.94057 -118.38251 101 ft 10 kts 83°
2026-04-26 12:28 33.94066 -118.38168 98 ft 10 kts 83°
2026-04-26 12:29 33.94073 -118.38084 98 ft 10 kts 89°
2026-04-26 12:29 33.94043 -118.38013 97 ft 10 kts 148°
2026-04-26 12:29 33.93982 -118.38073 98 ft 0 kts 261°
2026-04-26 12:30 33.93937 -118.38491 106 ft 106 kts 263°
2026-04-26 12:30 33.93808 -118.39738 376 ft 179 kts 264°
2026-04-26 12:30 33.93661 -118.41313 1573 ft 194 kts 264°
2026-04-26 12:31 33.93410 -118.44581 3009 ft 226 kts 264°
2026-04-26 12:31 33.93152 -118.46548 3055 ft 244 kts 253°
2026-04-26 12:31 33.92147 -118.48203 3870 ft 252 kts 222°
2026-04-26 12:31 33.90734 -118.49451 4607 ft 249 kts 223°
2026-04-26 12:32 33.89595 -118.51020 5383 ft 251 kts 236°
2026-04-26 12:32 33.88513 -118.52702 6341 ft 255 kts 233°
2026-04-26 12:32 33.85926 -118.55603 8143 ft 268 kts 204°
2026-04-26 12:33 33.84052 -118.55935 9087 ft 280 kts 180°
2026-04-26 12:33 33.82114 -118.55507 9914 ft 288 kts 172°
2026-04-26 12:33 33.80117 -118.54941 10461 ft 307 kts 172°
2026-04-26 12:33 33.77960 -118.54337 10987 ft 325 kts 172°
2026-04-26 12:34 33.75728 -118.53720 11854 ft 334 kts 172°
2026-04-26 12:34 33.73447 -118.53098 12883 ft 339 kts 172°
2026-04-26 12:34 33.71192 -118.52211 13720 ft 351 kts 155°
2026-04-26 12:34 33.69330 -118.50214 14491 ft 372 kts 128°
2026-04-26 12:35 33.68208 -118.47385 15342 ft 379 kts 111°
2026-04-26 12:35 33.67374 -118.44385 16071 ft 389 kts 111°
2026-04-26 12:35 33.66502 -118.41283 16941 ft 395 kts 111°
2026-04-26 12:35 33.65595 -118.38159 17891 ft 399 kts 112°
2026-04-26 12:36 33.64679 -118.34996 18688 ft 402 kts 109°
2026-04-26 12:36 33.64234 -118.31653 19159 ft 412 kts 92°
2026-04-26 12:36 33.64279 -118.28173 19763 ft 422 kts 89°
2026-04-26 12:36 33.64354 -118.24623 20550 ft 427 kts 89°
2026-04-26 12:37 33.64412 -118.21044 21380 ft 431 kts 90°
2026-04-26 12:37 33.64448 -118.17422 22192 ft 437 kts 91°
2026-04-26 12:37 33.64464 -118.13761 22931 ft 443 kts 91°
2026-04-26 12:37 33.64468 -118.10026 23661 ft 450 kts 91°
2026-04-26 12:38 33.64465 -118.06250 24302 ft 456 kts 91°
2026-04-26 12:38 33.64459 -118.02425 24934 ft 462 kts 92°
2026-04-26 12:38 33.64452 -117.98548 25569 ft 467 kts 92°
2026-04-26 12:38 33.64445 -117.94622 26214 ft 473 kts 92°
2026-04-26 12:39 33.64437 -117.90650 26743 ft 481 kts 92°
2026-04-26 12:39 33.64429 -117.86602 27271 ft 488 kts 92°
2026-04-26 12:39 33.64419 -117.82504 27886 ft 493 kts 92°
2026-04-26 12:39 33.64492 -117.78373 28499 ft 498 kts 86°
2026-04-26 12:40 33.65086 -117.74246 28979 ft 506 kts 77°
2026-04-26 12:40 33.65945 -117.70124 29492 ft 512 kts 75°
2026-04-26 12:40 33.66866 -117.65969 30040 ft 517 kts 75°
2026-04-26 12:40 33.67773 -117.61784 30504 ft 521 kts 76°
2026-04-26 12:41 33.68646 -117.57541 30952 ft 526 kts 77°
2026-04-26 12:41 33.69489 -117.53250 31372 ft 530 kts 77°
2026-04-26 12:41 33.70316 -117.48916 31773 ft 535 kts 77°
2026-04-26 12:41 33.71138 -117.44543 32176 ft 539 kts 78°
2026-04-26 12:42 33.71968 -117.40131 32563 ft 543 kts 78°
2026-04-26 12:42 33.72807 -117.35680 32950 ft 547 kts 78°
2026-04-26 12:42 33.73664 -117.31165 33335 ft 551 kts 77°
2026-04-26 12:42 33.74507 -117.26721 33717 ft 554 kts 78°
2026-04-26 12:43 33.75258 -117.22171 34052 ft 557 kts 85°
2026-04-26 12:43 33.75373 -117.17476 34371 ft 555 kts 96°
2026-04-26 12:43 33.75131 -117.12845 34762 ft 555 kts 98°
2026-04-26 12:43 33.74881 -117.08272 35206 ft 556 kts 97°
2026-04-26 12:44 33.74708 -117.03561 35581 ft 558 kts 95°
2026-04-26 12:44 33.74609 -116.98897 35915 ft 560 kts 94°
2026-04-26 12:44 33.74528 -116.94200 36233 ft 562 kts 95°
2026-04-26 12:44 33.74436 -116.89507 36587 ft 562 kts 95°
2026-04-26 12:45 33.74334 -116.84886 37062 ft 558 kts 95°
2026-04-26 12:45 33.74227 -116.80262 37733 ft 552 kts 95°
2026-04-26 12:45 33.74116 -116.75657 38209 ft 550 kts 95°
2026-04-26 12:45 33.74003 -116.71060 38545 ft 551 kts 95°
2026-04-26 12:46 33.73888 -116.66456 38803 ft 552 kts 95°
2026-04-26 12:46 33.73773 -116.61848 39079 ft 552 kts 95°
2026-04-26 12:46 33.73657 -116.57235 39342 ft 551 kts 95°
2026-04-26 12:46 33.73541 -116.52635 39571 ft 552 kts 96°
2026-04-26 12:47 33.73422 -116.48025 39750 ft 554 kts 96°
2026-04-26 12:47 33.73301 -116.43395 39984 ft 554 kts 96°
2026-04-26 12:47 33.73183 -116.38774 40249 ft 552 kts 96°
2026-04-26 12:47 33.73058 -116.34168 40537 ft 551 kts 96°
2026-04-26 12:48 33.72930 -116.29570 40777 ft 552 kts 96°
2026-04-26 12:48 33.72672 -116.20327 40866 ft 557 kts 96°
2026-04-26 12:49 33.72411 -116.11052 40871 ft 552 kts 96°
2026-04-26 12:49 33.72496 -116.06442 40862 ft 555 kts 85°
2026-04-26 12:49 33.73414 -116.01945 40887 ft 555 kts 72°
2026-04-26 12:50 33.76016 -115.93200 40887 ft 558 kts 70°
2026-04-26 12:50 33.78657 -115.84382 40863 ft 562 kts 71°
2026-04-26 12:51 33.81182 -115.75445 40858 ft 566 kts 72°
2026-04-26 12:51 33.83652 -115.66428 40858 ft 569 kts 72°
2026-04-26 12:52 33.86128 -115.57358 40850 ft 572 kts 72°
2026-04-26 12:52 33.88621 -115.48243 40842 ft 574 kts 72°
2026-04-26 12:53 33.91115 -115.39117 40812 ft 574 kts 72°
2026-04-26 12:53 33.93597 -115.30005 40802 ft 571 kts 72°
2026-04-26 12:54 33.96053 -115.20950 40822 ft 567 kts 72°
2026-04-26 12:54 33.98489 -115.11940 40815 ft 565 kts 72°
2026-04-26 12:55 34.00916 -115.02932 40808 ft 564 kts 72°
2026-04-26 12:55 34.03325 -114.93965 40806 ft 562 kts 72°
2026-04-26 12:56 34.05724 -114.85004 40807 ft 561 kts 72°
2026-04-26 12:56 34.08098 -114.76106 40807 ft 561 kts 72°
2026-04-26 12:57 34.10482 -114.67147 40809 ft 561 kts 72°
2026-04-26 12:57 34.12852 -114.58178 40803 ft 561 kts 72°
2026-04-26 12:58 34.16392 -114.44704 40789 ft 562 kts 72°
2026-04-26 12:58 34.18747 -114.35701 40769 ft 562 kts 73°
2026-04-26 12:59 34.21090 -114.26715 40777 ft 561 kts 73°
2026-04-26 12:59 34.23424 -114.17734 40772 ft 560 kts 73°
2026-04-26 13:00 34.25749 -114.08761 40776 ft 559 kts 73°
2026-04-26 13:00 34.28067 -113.99786 40781 ft 560 kts 73°
2026-04-26 13:01 34.30381 -113.90792 40782 ft 561 kts 73°
2026-04-26 13:01 34.32696 -113.81764 40774 ft 563 kts 73°
2026-04-26 13:02 34.35013 -113.72700 40767 ft 564 kts 73°
2026-04-26 13:02 34.37326 -113.63622 40775 ft 565 kts 73°
2026-04-26 13:03 34.39629 -113.54549 40766 ft 563 kts 73°
2026-04-26 13:03 34.41918 -113.45504 40756 ft 561 kts 73°
2026-04-26 13:04 34.43812 -113.37997 40752 ft 559 kts 74°
2026-04-26 13:04 34.46072 -113.29004 40753 ft 557 kts 74°
2026-04-26 13:05 34.48321 -113.20022 40757 ft 556 kts 74°
2026-04-26 13:05 34.50563 -113.11040 40754 ft 557 kts 74°
2026-04-26 13:06 34.52801 -113.02044 40756 ft 558 kts 74°
2026-04-26 13:06 34.55038 -112.93018 40766 ft 560 kts 74°
2026-04-26 13:07 34.57278 -112.83954 40759 ft 562 kts 74°
2026-04-26 13:07 34.59514 -112.74867 40763 ft 563 kts 74°
2026-04-26 13:08 34.61750 -112.65753 40753 ft 564 kts 74°
2026-04-26 13:08 34.63983 -112.56619 40770 ft 564 kts 75°
2026-04-26 13:09 34.66211 -112.47474 40871 ft 565 kts 75°
2026-04-26 13:09 34.68432 -112.38317 40881 ft 565 kts 75°
2026-04-26 13:10 34.70650 -112.29143 40868 ft 566 kts 75°
2026-04-26 13:10 34.72864 -112.19952 40836 ft 567 kts 75°
2026-04-26 13:11 34.75072 -112.10751 40793 ft 568 kts 74°
2026-04-26 13:11 34.77279 -112.01525 40824 ft 567 kts 74°
2026-04-26 13:12 34.79473 -111.92318 40862 ft 567 kts 75°
2026-04-26 13:12 34.81658 -111.83110 40881 ft 566 kts 75°
2026-04-26 13:13 34.83835 -111.73909 40880 ft 565 kts 74°
2026-04-26 13:13 34.85999 -111.64725 40840 ft 563 kts 74°
2026-04-26 13:14 34.88148 -111.55572 40768 ft 562 kts 74°
2026-04-26 13:14 34.90286 -111.46424 40760 ft 562 kts 75°
2026-04-26 13:15 34.92419 -111.37269 40765 ft 561 kts 75°
2026-04-26 13:15 34.94545 -111.28112 40761 ft 562 kts 75°
2026-04-26 13:16 34.96654 -111.18996 40756 ft 562 kts 75°
2026-04-26 13:16 34.98765 -111.09831 40758 ft 561 kts 75°
2026-04-26 13:17 35.01909 -110.96122 40825 ft 558 kts 75°
2026-04-26 13:18 35.05025 -110.82455 40879 ft 557 kts 75°
2026-04-26 13:19 35.08129 -110.68765 40883 ft 559 kts 75°
2026-04-26 13:19 35.10199 -110.59587 40750 ft 561 kts 75°
2026-04-26 13:20 35.12269 -110.50380 40741 ft 563 kts 75°
2026-04-26 13:20 35.14337 -110.41153 40741 ft 564 kts 76°
2026-04-26 13:21 35.16400 -110.31909 40737 ft 563 kts 76°
2026-04-26 13:21 35.18450 -110.22671 40738 ft 563 kts 76°
2026-04-26 13:22 35.20491 -110.13441 40718 ft 562 kts 76°
2026-04-26 13:22 35.22522 -110.04228 40737 ft 560 kts 76°
2026-04-26 13:23 35.24539 -109.95043 40737 ft 558 kts 76°
2026-04-26 13:23 35.26542 -109.85880 40736 ft 557 kts 76°
2026-04-26 13:24 35.28538 -109.76717 40719 ft 557 kts 76°
2026-04-26 13:24 35.30527 -109.67552 40738 ft 557 kts 76°
2026-04-26 13:25 35.32507 -109.58388 40740 ft 557 kts 76°
2026-04-26 13:25 35.34481 -109.49217 40744 ft 557 kts 76°
2026-04-26 13:26 35.36449 -109.40037 40736 ft 557 kts 76°
2026-04-26 13:26 35.38409 -109.30855 40761 ft 557 kts 76°
2026-04-26 13:27 35.40365 -109.21658 40797 ft 558 kts 76°
2026-04-26 13:27 35.42312 -109.12465 40832 ft 558 kts 76°
2026-04-26 13:28 35.44255 -109.03254 40846 ft 557 kts 77°
2026-04-26 13:28 35.46187 -108.94057 40887 ft 557 kts 77°
2026-04-26 13:29 35.48191 -108.84893 40929 ft 557 kts 73°
2026-04-26 13:29 35.50607 -108.75868 40924 ft 556 kts 72°
2026-04-26 13:29 35.51852 -108.71371 40693 ft 556 kts 72°
2026-04-26 13:30 35.53094 -108.66887 40711 ft 555 kts 72°
2026-04-26 13:30 35.55549 -108.57905 40707 ft 554 kts 72°
2026-04-26 13:31 35.57964 -108.48921 40700 ft 554 kts 72°
2026-04-26 13:31 35.60362 -108.39938 40722 ft 554 kts 72°
2026-04-26 13:32 35.62758 -108.30930 40740 ft 555 kts 72°
2026-04-26 13:32 35.65159 -108.21885 40727 ft 557 kts 72°
2026-04-26 13:33 35.67559 -108.12819 40747 ft 558 kts 73°
2026-04-26 13:33 35.69957 -108.03732 40743 ft 559 kts 73°
2026-04-26 13:34 35.72349 -107.94634 40747 ft 559 kts 73°
2026-04-26 13:34 35.74715 -107.85601 40737 ft 558 kts 73°
2026-04-26 13:35 35.77089 -107.76504 40740 ft 558 kts 73°
2026-04-26 13:35 35.79456 -107.67407 40747 ft 558 kts 73°
2026-04-26 13:36 35.81821 -107.58283 40775 ft 560 kts 73°
2026-04-26 13:36 35.84185 -107.49129 40751 ft 561 kts 73°
2026-04-26 13:37 35.86547 -107.39953 40765 ft 562 kts 73°
2026-04-26 13:37 35.88905 -107.30761 40765 ft 562 kts 73°
2026-04-26 13:38 35.91258 -107.21552 40766 ft 563 kts 73°
2026-04-26 13:38 35.93615 -107.12320 40769 ft 564 kts 73°
2026-04-26 13:39 35.95953 -107.03098 40763 ft 563 kts 73°
2026-04-26 13:39 35.98282 -106.93872 40779 ft 562 kts 73°
2026-04-26 13:40 36.00603 -106.84654 40782 ft 562 kts 73°
2026-04-26 13:40 36.02916 -106.75437 40757 ft 561 kts 73°
2026-04-26 13:41 36.05217 -106.66238 40765 ft 560 kts 73°
2026-04-26 13:41 36.07507 -106.57050 40815 ft 559 kts 73°
2026-04-26 13:42 36.09788 -106.47864 40818 ft 558 kts 73°
2026-04-26 13:42 36.12052 -106.38713 40855 ft 556 kts 73°
2026-04-26 13:43 36.14308 -106.29560 40841 ft 556 kts 74°
2026-04-26 13:43 36.16553 -106.20418 40822 ft 555 kts 74°
2026-04-26 13:44 36.18792 -106.11266 40788 ft 557 kts 74°
2026-04-26 13:44 36.21030 -106.02082 40760 ft 558 kts 74°
2026-04-26 13:45 36.23265 -105.92878 40751 ft 558 kts 73°
2026-04-26 13:45 36.25491 -105.83684 40760 ft 557 kts 74°
2026-04-26 13:46 36.27706 -105.74503 40760 ft 556 kts 73°
2026-04-26 13:46 36.29920 -105.65318 40801 ft 556 kts 74°
2026-04-26 13:47 36.32112 -105.56154 40873 ft 552 kts 74°
2026-04-26 13:47 36.34288 -105.47024 40930 ft 551 kts 74°
2026-04-26 13:48 36.36441 -105.37921 40998 ft 549 kts 74°
2026-04-26 13:48 36.38225 -105.30360 41001 ft 550 kts 74°
2026-04-26 13:49 36.40375 -105.21256 41002 ft 550 kts 74°
2026-04-26 13:49 36.42520 -105.12130 40956 ft 551 kts 74°
2026-04-26 13:50 36.44667 -105.02988 40896 ft 552 kts 74°
2026-04-26 13:50 36.45733 -104.98408 40726 ft 552 kts 74°
2026-04-26 13:50 36.46799 -104.93820 40733 ft 552 kts 74°
2026-04-26 13:51 36.48927 -104.84639 40728 ft 554 kts 74°
2026-04-26 13:51 36.51057 -104.75435 40737 ft 555 kts 74°
2026-04-26 13:52 36.53182 -104.66217 40731 ft 555 kts 74°
2026-04-26 13:52 36.55293 -104.56985 40734 ft 555 kts 74°
2026-04-26 13:52 36.56349 -104.52373 40860 ft 555 kts 74°
2026-04-26 13:53 36.57407 -104.47760 40870 ft 555 kts 74°
2026-04-26 13:53 36.59515 -104.38533 40866 ft 554 kts 74°
2026-04-26 13:54 36.61596 -104.29363 40853 ft 553 kts 75°
2026-04-26 13:54 36.63675 -104.20159 40793 ft 551 kts 75°
2026-04-26 13:55 36.66434 -104.07893 40747 ft 548 kts 75°
2026-04-26 13:56 36.69832 -103.92699 40757 ft 548 kts 75°
2026-04-26 13:56 36.71867 -103.83549 40740 ft 548 kts 75°
2026-04-26 13:57 36.73900 -103.74375 40766 ft 549 kts 75°
2026-04-26 13:57 36.75927 -103.65189 40776 ft 550 kts 75°
2026-04-26 13:58 36.77950 -103.55986 40789 ft 550 kts 75°
2026-04-26 13:58 36.79969 -103.46766 40799 ft 551 kts 75°
2026-04-26 13:59 36.81980 -103.37539 40798 ft 551 kts 75°
2026-04-26 13:59 36.83988 -103.28293 40813 ft 552 kts 75°
2026-04-26 14:00 36.87982 -103.09787 40810 ft 552 kts 75°
2026-04-26 14:01 36.89953 -103.00597 40814 ft 551 kts 75°
2026-04-26 14:01 36.91927 -102.91357 40809 ft 550 kts 75°
2026-04-26 14:02 36.93890 -102.82128 40808 ft 550 kts 75°
2026-04-26 14:02 36.95847 -102.72887 40806 ft 549 kts 75°
2026-04-26 14:03 36.97791 -102.63672 40815 ft 548 kts 75°
2026-04-26 14:03 36.99730 -102.54446 40826 ft 548 kts 75°
2026-04-26 14:04 37.01659 -102.45225 40831 ft 548 kts 75°
2026-04-26 14:04 37.03580 -102.36003 40822 ft 548 kts 75°
2026-04-26 14:05 37.05493 -102.26782 40842 ft 547 kts 75°
2026-04-26 14:05 37.07398 -102.17557 40893 ft 547 kts 75°
2026-04-26 14:06 37.09296 -102.08328 40915 ft 547 kts 75°
2026-04-26 14:06 37.11187 -101.99099 40944 ft 547 kts 76°
2026-04-26 14:07 37.13067 -101.89876 40939 ft 546 kts 76°
2026-04-26 14:07 37.14936 -101.80668 40927 ft 544 kts 76°
2026-04-26 14:08 37.16792 -101.71488 40915 ft 543 kts 76°
2026-04-26 14:08 37.18642 -101.62303 40895 ft 543 kts 76°
2026-04-26 14:09 37.20468 -101.53193 40916 ft 542 kts 76°
2026-04-26 14:09 37.22300 -101.44014 40926 ft 542 kts 76°
2026-04-26 14:10 37.24126 -101.34825 40926 ft 543 kts 76°
2026-04-26 14:10 37.25944 -101.25633 40906 ft 542 kts 76°
2026-04-26 14:11 37.28629 -101.11985 40874 ft 541 kts 76°
2026-04-26 14:11 37.30426 -101.02804 40872 ft 541 kts 76°
2026-04-26 14:12 37.32214 -100.93627 40872 ft 541 kts 76°
2026-04-26 14:12 37.33983 -100.84509 40872 ft 541 kts 76°
2026-04-26 14:13 37.36640 -100.70738 40871 ft 541 kts 76°
2026-04-26 14:14 37.38402 -100.61545 40870 ft 541 kts 76°
2026-04-26 14:14 37.40157 -100.52352 40884 ft 540 kts 76°
2026-04-26 14:15 37.41903 -100.43160 40867 ft 539 kts 76°
2026-04-26 14:15 37.43640 -100.33985 40878 ft 539 kts 76°
2026-04-26 14:16 37.45366 -100.24823 40880 ft 538 kts 76°
2026-04-26 14:16 37.47083 -100.15660 40881 ft 537 kts 76°
2026-04-26 14:17 37.48791 -100.06510 40884 ft 537 kts 76°
2026-04-26 14:17 37.50416 -99.97329 40880 ft 537 kts 79°
2026-04-26 14:18 37.51684 -99.88061 40890 ft 537 kts 81°
2026-04-26 14:18 37.52870 -99.78788 40875 ft 537 kts 81°
2026-04-26 14:19 37.54073 -99.69502 40872 ft 536 kts 81°
2026-04-26 14:19 37.55292 -99.60223 40863 ft 536 kts 81°
2026-04-26 14:20 37.56510 -99.50957 40862 ft 536 kts 81°
2026-04-26 14:20 37.57722 -99.41673 40865 ft 537 kts 81°
2026-04-26 14:21 37.58930 -99.32377 40858 ft 537 kts 81°
2026-04-26 14:21 37.60131 -99.23076 40856 ft 538 kts 81°
2026-04-26 14:22 37.61320 -99.13767 40856 ft 538 kts 81°
2026-04-26 14:22 37.62498 -99.04455 40866 ft 537 kts 81°
2026-04-26 14:23 37.63670 -98.95155 40878 ft 537 kts 81°
2026-04-26 14:23 37.64845 -98.85842 40885 ft 537 kts 81°
2026-04-26 14:24 37.66005 -98.76538 40889 ft 537 kts 81°
2026-04-26 14:24 37.67154 -98.67237 40887 ft 536 kts 81°
2026-04-26 14:25 37.68295 -98.57935 40882 ft 536 kts 81°
2026-04-26 14:25 37.69428 -98.48637 40868 ft 535 kts 81°
2026-04-26 14:26 37.70553 -98.39347 40855 ft 535 kts 81°
2026-04-26 14:26 37.71670 -98.30058 40852 ft 534 kts 82°
2026-04-26 14:27 37.72766 -98.20846 40848 ft 533 kts 82°
2026-04-26 14:27 37.73864 -98.11530 40848 ft 532 kts 82°
2026-04-26 14:28 37.74948 -98.02285 40844 ft 532 kts 82°
2026-04-26 14:28 37.76023 -97.93107 40843 ft 531 kts 82°
2026-04-26 14:29 37.77097 -97.83873 40845 ft 531 kts 82°
2026-04-26 14:29 37.78164 -97.74640 40847 ft 531 kts 82°
2026-04-26 14:30 37.79222 -97.65407 40833 ft 531 kts 82°
2026-04-26 14:30 37.80279 -97.56117 40843 ft 530 kts 82°
2026-04-26 14:31 37.81322 -97.46877 40872 ft 530 kts 82°
2026-04-26 14:31 37.82351 -97.37705 40870 ft 530 kts 82°
2026-04-26 14:32 37.83380 -97.28467 40880 ft 530 kts 82°
2026-04-26 14:32 37.84400 -97.19236 40881 ft 530 kts 82°
2026-04-26 14:33 37.85413 -97.10001 40873 ft 530 kts 82°
2026-04-26 14:33 37.86420 -97.00763 40877 ft 530 kts 82°
2026-04-26 14:34 37.87418 -96.91532 40880 ft 530 kts 83°
2026-04-26 14:34 37.88412 -96.82278 40880 ft 530 kts 82°
2026-04-26 14:35 37.89807 -96.73129 40887 ft 529 kts 77°
2026-04-26 14:35 37.91455 -96.64046 40883 ft 530 kts 76°
2026-04-26 14:36 37.93096 -96.54946 40861 ft 530 kts 77°
2026-04-26 14:36 37.94697 -96.45843 40879 ft 530 kts 77°
2026-04-26 14:37 37.96278 -96.36723 40877 ft 530 kts 77°
2026-04-26 14:37 37.97855 -96.27581 40871 ft 531 kts 77°
2026-04-26 14:38 37.99425 -96.18447 40874 ft 531 kts 77°
2026-04-26 14:38 38.00990 -96.09299 40878 ft 531 kts 77°
2026-04-26 14:39 38.02549 -96.00148 40878 ft 531 kts 77°
2026-04-26 14:39 38.04102 -95.90982 40891 ft 532 kts 77°
2026-04-26 14:40 38.05649 -95.81805 40899 ft 532 kts 77°
2026-04-26 14:40 38.07189 -95.72625 40904 ft 532 kts 78°
2026-04-26 14:41 38.08463 -95.64995 40904 ft 531 kts 77°
2026-04-26 14:41 38.09989 -95.55811 40893 ft 531 kts 78°
2026-04-26 14:42 38.11506 -95.46635 40892 ft 531 kts 78°
2026-04-26 14:42 38.13018 -95.37449 40895 ft 531 kts 78°
2026-04-26 14:43 38.14521 -95.28261 40894 ft 532 kts 78°
2026-04-26 14:43 38.16020 -95.19057 40898 ft 532 kts 78°
2026-04-26 14:44 38.17511 -95.09846 40903 ft 532 kts 78°
2026-04-26 14:44 38.18997 -95.00627 40903 ft 532 kts 78°
2026-04-26 14:45 38.20476 -94.91395 40902 ft 533 kts 78°
2026-04-26 14:45 38.21948 -94.82165 40913 ft 533 kts 78°
2026-04-26 14:46 38.23416 -94.72938 40902 ft 533 kts 78°
2026-04-26 14:46 38.24868 -94.63694 40909 ft 533 kts 78°
2026-04-26 14:47 38.26317 -94.54456 40908 ft 533 kts 78°
2026-04-26 14:47 38.27937 -94.45262 40914 ft 532 kts 73°
2026-04-26 14:48 38.30016 -94.36229 40924 ft 532 kts 72°
2026-04-26 14:48 38.32121 -94.27198 40937 ft 532 kts 72°
2026-04-26 14:49 38.34199 -94.18137 40938 ft 532 kts 72°
2026-04-26 14:49 38.36248 -94.09086 40939 ft 532 kts 72°
2026-04-26 14:50 38.38284 -94.00031 40931 ft 531 kts 72°
2026-04-26 14:50 38.40313 -93.90974 40926 ft 531 kts 72°
2026-04-26 14:51 38.42330 -93.81915 40934 ft 531 kts 73°
2026-04-26 14:51 38.44335 -93.72861 40944 ft 531 kts 73°
2026-04-26 14:52 38.46336 -93.63807 40949 ft 530 kts 73°
2026-04-26 14:52 38.48335 -93.54746 40943 ft 530 kts 73°
2026-04-26 14:53 38.50326 -93.45684 40958 ft 530 kts 73°
2026-04-26 14:53 38.52297 -93.36675 40946 ft 530 kts 73°
2026-04-26 14:54 38.54278 -93.27600 40958 ft 530 kts 72°
2026-04-26 14:54 38.56280 -93.18467 40962 ft 530 kts 73°
2026-04-26 14:55 38.58245 -93.09383 40944 ft 531 kts 73°
2026-04-26 14:55 38.60198 -93.00288 40958 ft 531 kts 72°
2026-04-26 14:56 38.62135 -92.91235 40972 ft 531 kts 73°
2026-04-26 14:56 38.64087 -92.82115 40961 ft 532 kts 71°
2026-04-26 14:57 38.66059 -92.73014 40977 ft 531 kts 73°
2026-04-26 14:57 38.67961 -92.63895 40976 ft 531 kts 73°
2026-04-26 14:58 38.69869 -92.54757 40977 ft 531 kts 73°